Location: Newark
(60.6561°N, 46.5772°E)
Time: 03:13:45
(UTC+00:00)

Tiros 1 despin weight - Pass Details

Date: 25 October 2019
Orbit: 594 x 642 km, 48.2° (Epoch: 12 November)

Event Time Altitude Azimuth Distance (km) Brightness Sun altitude
Rises 22:41:30 0° 245° (WSW) 2,933 - -36.6°
Reaches altitude 10° 22:44:28 10° 226° (SW) 2,030 - -36.3°
Maximum altitude 22:47:33 18° 185° (S) 1,589 - -36.1°
Drops below altitude 10° 22:50:39 10° 143° (SE) 2,035 - -35.8°
Sets 22:53:37 0° 124° (SE) 2,944 - -35.6°
